Greenville, SC

2:25 PM EST on February 23, 2017 (GMT -0500)
Greenville Downtown

Weather History for KGMU - September, 2014

Change the Weather History Date:

Thursday, September 18, 2014

  Actual Average Record
Temperature  
Mean Temperature 72 °F -  
Max Temperature 81 °F 78 °F 91 °F (2005)
Min Temperature 64 °F 60 °F 53 °F (2001)
Cooling Degree Days 7    
Growing Degree Days 22 (Base 50)    
Moisture  
Dew Point 63 °F    
Average Humidity 74    
Maximum Humidity 90    
Minimum Humidity 52    
Precipitation  
Precipitation 0.00 in - - ()
Sea Level Pressure  
Sea Level Pressure 29.99 in    
Wind  
Wind Speed 4 mph (NE)    
Max Wind Speed 8 mph    
Max Gust Speed -    
Visibility 10 miles    
Events      
Averages and records for this station are not official NWS values.
T = Trace of Precipitation, MM = Missing Value Source: NWS Daily Summary

Daily Weather History Graph

Daily Weather History Graph

Search for Another Location

Airport or City:

Trip Planner

Search our weather history database for the weather conditions in past years. The results will help you decide how hot, cold, wet, or windy it might be!

Date:

Astronomy

Sep. 18, 2014 Rise Set
Actual Time 7:14 AM EDT 7:31 PM EDT
Civil Twilight 6:49 AM EDT 7:57 PM EDT
Nautical Twilight 6:19 AM EDT 8:26 PM EDT
Astronomical Twilight 5:49 AM EDT 8:56 PM EDT
Moon 2:14 AM EDT (9/18) 4:13 PM EDT (9/18)
Length of Visible Light 13h 07m
Length of Day
12h 17m
Waning Crescent, 26% of the Moon is Illuminated
Sep 18
Waning Crescent
Sep 24
New
Oct 1
First Quarter
Oct 8
Full
Oct 15
Last Quarter

Hourly Weather History & Observations

Time (EDT) Temp. Heat Index Dew Point Humidity Pressure Visibility Wind Dir Wind Speed Gust Speed Precip Events Conditions
12:53 AM 68.0 °F - 63.0 °F 84% 29.96 in 10.0 mi Calm Calm - N/A   Overcast
1:53 AM 66.0 °F - 62.1 °F 87% 29.95 in 9.0 mi Calm Calm - N/A   Mostly Cloudy
2:53 AM 66.0 °F - 62.1 °F 87% 29.94 in 9.0 mi North 4.6 mph - N/A   Clear
3:53 AM 64.9 °F - 62.1 °F 90% 29.94 in 7.0 mi Calm Calm - N/A   Clear
4:36 AM 64.9 °F - 62.1 °F 90% 29.96 in 8.0 mi Calm Calm - N/A   Mostly Cloudy
4:43 AM 64.9 °F - 62.1 °F 90% 29.96 in 8.0 mi Calm Calm - N/A   Overcast
5:53 AM 66.0 °F - 61.0 °F 84% 29.94 in 10.0 mi NE 4.6 mph - N/A   Partly Cloudy
6:53 AM 64.9 °F - 62.1 °F 90% 29.96 in 9.0 mi NNE 4.6 mph - N/A   Scattered Clouds
8:02 AM 66.0 °F - 61.0 °F 84% 30.00 in 10.0 mi NE 8.1 mph - N/A   Overcast
8:53 AM 66.9 °F - 62.1 °F 84% 29.99 in 8.0 mi NNE 8.1 mph - N/A   Overcast
9:08 AM 66.9 °F - 63.0 °F 87% 30.02 in 8.0 mi NE 8.1 mph - N/A   Overcast
9:53 AM 71.1 °F - 63.0 °F 75% 30.01 in 10.0 mi NNE 5.8 mph - N/A   Partly Cloudy
10:53 AM 73.0 °F - 63.0 °F 71% 30.01 in 10.0 mi NNE 6.9 mph - N/A   Clear
11:25 AM 73.9 °F - 64.0 °F 71% 30.03 in 10.0 mi NNE 8.1 mph - N/A   Mostly Cloudy
11:53 AM 75.0 °F - 64.0 °F 69% 30.01 in 10.0 mi NE 8.1 mph - N/A   Overcast
12:53 PM 75.0 °F - 63.0 °F 66% 30.01 in 10.0 mi ENE 6.9 mph - N/A   Overcast
1:14 PM 77.0 °F - 64.0 °F 64% 30.02 in 10.0 mi ENE 5.8 mph - N/A   Overcast
1:51 PM 77.0 °F - 62.6 °F 61% 30.02 in 10.0 mi Variable 5.8 mph - N/A   Scattered Clouds
1:53 PM 77.0 °F - 63.0 °F 62% 30.00 in 10.0 mi ENE 6.9 mph - N/A   Scattered Clouds
2:53 PM 79.0 °F - 62.1 °F 56% 29.97 in 10.0 mi East 8.1 mph - N/A   Partly Cloudy
3:53 PM 80.1 °F 81.1 °F 61.0 °F 52% 29.95 in 10.0 mi East 6.9 mph - N/A   Partly Cloudy
4:53 PM 79.0 °F - 60.1 °F 52% 29.96 in 10.0 mi Variable 4.6 mph - N/A   Mostly Cloudy
5:53 PM 78.1 °F - 61.0 °F 56% 29.96 in 10.0 mi East 6.9 mph - N/A   Overcast
6:53 PM 75.9 °F - 62.1 °F 62% 29.96 in 10.0 mi East 6.9 mph - N/A   Scattered Clouds
7:53 PM 75.0 °F - 62.1 °F 64% 29.97 in 10.0 mi East 3.5 mph - N/A   Overcast
8:53 PM 73.9 °F - 63.0 °F 68% 30.00 in 10.0 mi ESE 3.5 mph - N/A   Overcast
9:53 PM 73.0 °F - 64.0 °F 73% 30.02 in 10.0 mi NE 4.6 mph - N/A   Partly Cloudy
10:53 PM 71.1 °F - 64.9 °F 81% 30.02 in 10.0 mi NE 5.8 mph - N/A   Clear
11:53 PM 70.0 °F - 64.0 °F 81% 30.03 in 10.0 mi North 5.8 mph - N/A   Partly Cloudy